Location: Allonne
(49.4086°N, 2.1143°E)
Time: 14:53:50
(UTC+00:00)

Lacrosse 5 - Pass Details

Date: 03 February 2023
Orbit: 714 x 724 km, 57.0° (Epoch: 09 March)

Event Time Altitude Azimuth Distance (km) Brightness Sun altitude
Rises 20:09:06 0° 265° (W) 3,136 6.2 -32.4°
Reaches altitude 10° 20:11:36 10° 272° (W) 2,217 5.2 -32.8°
Enters shadow 20:15:03 35° 304° (NW) 1,171 3.3 -33.3°
